Weather reports worldwide

Advertisment
Logrono/Agoncillo, Spain (8084): temperature & dewpoint: 19.04.2019 14:00:00 - 25.04.2019 14:00:00 (CEST)Logrono/Agoncillo, Spain (8084): wind speed: 19.04.2019 14:00:00 - 25.04.2019 14:00:00 (CEST)Logrono/Agoncillo, Spain (8084): wind direction: 19.04.2019 14:00:00 - 25.04.2019 14:00:00 (CEST)Logrono/Agoncillo, Spain (8084): reduced air pressure: 19.04.2019 14:00:00 - 25.04.2019 14:00:00 (CEST)Logrono/Agoncillo, Spain (8084): visibility: 19.04.2019 14:00:00 - 25.04.2019 14:00:00 (CEST)Logrono/Agoncillo, Spain (8084): precipitation: 19.04.2019 14:00:00 - 25.04.2019 14:00:00 (CEST)
Date & Time tt [°C] td [°C] ff [km/h] ff [kn] dd ppp [hPa] vv [km] rr [mm]
25.04.2019 14:00:00 16,3 2,2 18 10 SW 1007,3 30 -
25.04.2019 13:00:00 15,5 1,2 21 11 WSW 1007,6 - -
25.04.2019 12:00:00 14,6 1,3 26 14 WSW 1007,3 - -
25.04.2019 11:00:00 13,5 2,5 16 9 WSW 1007,0 30 -
25.04.2019 10:00:00 11,2 4,1 18 10 SW 1007,5 - -
25.04.2019 09:00:00 9,8 6,4 8 4 ENE 1006,9 - -
25.04.2019 08:00:00 7,3 5,4 5 3 E 1006,7 - 0,0
25.04.2019 07:00:00 6,9 4,7 4 2 SSW 1006,0 - -
25.04.2019 06:00:00 8,4 5,1 8 4 W 1005,2 - -
25.04.2019 05:00:00 8,3 6,9 9 5 SE 1004,5 - -
25.04.2019 04:00:00 9,6 7,0 9 5 W 1003,6 - -
25.04.2019 03:00:00 11,0 6,0 16 9 S 1002,8 - -
25.04.2019 02:00:00 9,4 8,3 4 2 WNW 1002,8 - -
25.04.2019 01:00:00 9,2 8,3 9 5 E 1002,5 - -
25.04.2019 00:00:00 9,5 8,3 4 2 E 1002,4 - -
24.04.2019 23:00:00 10,0 9,1 4 2 E 1002,7 9 -
24.04.2019 22:00:00 10,5 9,1 9 5 E 1002,1 - -
24.04.2019 21:00:00 10,8 9,2 4 2 WSW 1002,3 - -
24.04.2019 20:00:00 12,4 9,1 15 8 S 1000,2 5 -
24.04.2019 19:00:00 13,4 7,8 29 16 E 998,0 - -
24.04.2019 18:00:00 14,3 6,4 39 21 ESE 998,6 - -
24.04.2019 17:00:00 17,9 7,0 24 13 ESE 999,0 30 -
24.04.2019 16:00:00 15,3 5,0 29 16 ESE 999,8 - -
24.04.2019 15:00:00 15,2 3,7 11 6 SSE 1000,4 - -
24.04.2019 14:00:00 14,7 3,6 22 12 S 1000,7 30 -
24.04.2019 13:00:00 13,4 3,9 18 10 E 1001,4 - -
24.04.2019 12:00:00 11,3 3,3 15 8 ESE 1001,9 - -
24.04.2019 11:00:00 10,3 3,4 13 7 E 1002,0 30 -
24.04.2019 10:00:00 8,6 6,2 9 5 ENE 1002,1 - -
24.04.2019 09:00:00 7,5 5,1 5 3 ENE 1002,5 - -
24.04.2019 08:00:00 6,2 4,7 4 2 NNW 1002,5 30 -
24.04.2019 07:00:00 5,1 3,6 2 1 N 1002,2 - -
24.04.2019 06:00:00 6,7 4,2 4 2 SW 1001,9 - -
24.04.2019 05:00:00 7,4 4,2 5 3 WSW 1002,0 - -
24.04.2019 04:00:00 7,1 4,7 4 2 SSW 1001,9 - -
24.04.2019 03:00:00 8,4 4,4 4 2 SW 1001,4 - -
24.04.2019 02:00:00 8,6 5,2 4 2 WSW 1001,1 - -
24.04.2019 01:00:00 8,6 5,5 4 2 S 1000,6 - -
24.04.2019 00:00:00 9,1 4,9 4 2 SW 1000,1 - -
23.04.2019 23:00:00 9,6 4,6 8 4 W 999,8 10 -
23.04.2019 22:00:00 9,9 5,9 9 5 WNW 999,2 - -
23.04.2019 21:00:00 10,8 7,6 4 2 SSW 996,8 - -
23.04.2019 20:00:00 11,2 7,1 4 2 SW 996,3 10 -
23.04.2019 19:00:00 11,4 6,1 11 6 W 996,5 - -
23.04.2019 18:00:00 12,0 6,1 13 7 W 996,0 - -
23.04.2019 17:00:00 12,1 7,0 9 5 WSW 995,2 20 -
23.04.2019 16:00:00 12,0 6,7 15 8 W 995,8 - -
23.04.2019 15:00:00 13,3 7,1 18 10 W 994,9 - -
23.04.2019 14:00:00 16,8 6,7 18 10 SE 993,8 20 -
23.04.2019 13:00:00 15,8 10,6 21 11 E 994,3 - -
23.04.2019 12:00:00 15,3 10,2 18 10 ENE 994,8 - -
23.04.2019 11:00:00 13,4 10,3 15 8 E 995,1 20 -
23.04.2019 10:00:00 12,2 9,2 13 7 E 995,3 - -
23.04.2019 09:00:00 11,4 9,1 9 5 ENE 995,7 - -
23.04.2019 08:00:00 10,6 8,5 9 5 ENE 995,7 20 -
23.04.2019 07:00:00 10,6 8,2 13 7 ENE 995,7 - -
23.04.2019 06:00:00 10,8 8,0 16 9 NE 995,7 - -
23.04.2019 05:00:00 10,9 7,9 15 8 NE 995,9 - -
23.04.2019 04:00:00 11,6 8,4 21 11 ENE 996,1 - -
23.04.2019 03:00:00 12,3 8,8 15 8 ENE 996,3 - -
23.04.2019 02:00:00 12,9 9,0 11 6 ENE 996,8 - -
23.04.2019 01:00:00 13,3 8,9 11 6 ENE 996,9 - -
23.04.2019 00:00:00 13,3 8,8 11 6 ENE 997,2 - -
22.04.2019 23:00:00 13,7 7,7 11 6 E 997,1 15 -
22.04.2019 22:00:00 13,9 7,6 9 5 E 997,3 - -
22.04.2019 21:00:00 16,1 7,0 16 9 E 996,9 - -
22.04.2019 20:00:00 17,9 7,1 18 10 E 996,5 20 -
22.04.2019 19:00:00 18,3 7,2 18 10 E 996,5 - -
22.04.2019 18:00:00 18,8 6,7 24 13 E 996,6 - -
22.04.2019 17:00:00 19,4 7,1 24 13 E 997,3 20 -
22.04.2019 16:00:00 19,9 7,3 26 14 E 998,1 - -
22.04.2019 15:00:00 20,0 7,2 11 6 ENE 999,2 - -
22.04.2019 14:00:00 19,0 7,7 5 3 NNW 1000,3 20 -
22.04.2019 13:00:00 18,1 5,7 8 4 N 1001,4 - -
22.04.2019 12:00:00 16,8 8,0 4 2 W 1002,2 - -
22.04.2019 11:00:00 14,9 8,1 9 5 WNW 1003,1 15 -
22.04.2019 10:00:00 12,8 8,9 8 4 W 1003,8 - -
22.04.2019 09:00:00 11,8 9,0 8 4 W 1004,5 - -
22.04.2019 08:00:00 9,6 8,0 4 2 W 1005,0 9 -
22.04.2019 07:00:00 9,9 8,3 5 3 W 1005,0 - -
22.04.2019 06:00:00 10,6 8,4 8 4 W 1005,7 - -
22.04.2019 05:00:00 10,8 8,7 4 2 W 1006,8 - -
22.04.2019 04:00:00 10,8 8,7 5 3 WSW 1007,5 - -
22.04.2019 03:00:00 11,0 8,9 8 4 WSW 1008,4 - -
22.04.2019 02:00:00 11,3 9,4 0 0 N 1009,7 - -
22.04.2019 01:00:00 11,6 9,5 2 1 W 1010,2 - -
22.04.2019 00:00:00 11,8 9,2 4 2 WNW 1010,6 - -
21.04.2019 23:00:00 12,0 8,8 4 2 WSW 1010,9 10 -
21.04.2019 22:00:00 12,2 8,5 4 2 W 1010,9 - -
21.04.2019 21:00:00 12,7 8,4 5 3 WSW 1010,9 - -
21.04.2019 20:00:00 13,8 7,2 5 3 SSW 1010,8 20 -
21.04.2019 19:00:00 14,2 7,6 0 0 N 1011,2 - -
21.04.2019 18:00:00 14,3 6,6 2 1 N 1011,8 - -
21.04.2019 17:00:00 13,2 8,1 11 6 NE 1012,9 9 -
21.04.2019 16:00:00 15,4 6,3 5 3 NW 1012,9 - -
21.04.2019 15:00:00 15,2 7,8 5 3 WNW 1013,5 - -
21.04.2019 14:00:00 13,3 7,5 5 3 W 1014,5 20 -
21.04.2019 13:00:00 12,7 8,0 8 4 WSW 1015,2 - -
21.04.2019 12:00:00 11,7 7,4 8 4 SW 1015,9 - -
21.04.2019 11:00:00 11,0 7,7 8 4 WSW 1016,4 15 -
21.04.2019 10:00:00 10,9 7,4 4 2 NNE 1016,8 - -
21.04.2019 09:00:00 10,5 7,7 5 3 NE 1017,4 - -
21.04.2019 08:00:00 9,7 7,6 4 2 E 1017,7 15 -
21.04.2019 07:00:00 9,3 7,4 4 2 NE 1017,6 - -
21.04.2019 06:00:00 9,7 7,6 5 3 ENE 1018,1 - -
21.04.2019 05:00:00 9,8 7,4 13 7 NE 1018,4 - -
21.04.2019 04:00:00 9,8 7,4 9 5 NE 1018,9 - -
21.04.2019 03:00:00 10,5 7,7 22 12 NE 1019,6 - -
21.04.2019 02:00:00 11,0 8,0 13 7 ENE 1020,1 - -
21.04.2019 01:00:00 11,1 8,1 16 9 ENE 1020,3 - -
21.04.2019 00:00:00 11,8 8,6 24 13 ENE 1020,6 - -
20.04.2019 23:00:00 13,2 9,2 24 13 ENE 1019,8 7 -
20.04.2019 22:00:00 16,7 10,0 22 12 NE 1017,9 - -
20.04.2019 21:00:00 17,9 7,5 15 8 E 1016,8 - -
20.04.2019 20:00:00 20,6 7,0 13 7 ENE 1015,9 45 -
20.04.2019 19:00:00 21,5 5,0 15 8 E 1016,0 - -
20.04.2019 18:00:00 21,5 5,1 13 7 NE 1016,4 - -
20.04.2019 17:00:00 21,7 5,6 13 7 E 1016,8 40 -
20.04.2019 16:00:00 21,7 5,5 8 4 E 1017,4 - -
20.04.2019 15:00:00 21,2 4,6 8 4 N 1018,2 - -
20.04.2019 14:00:00 20,8 5,9 8 4 E 1018,9 40 -
20.04.2019 13:00:00 20,3 7,8 4 2 E 1019,7 - -
20.04.2019 12:00:00 18,3 8,1 4 2 WSW 1020,7 - -
20.04.2019 11:00:00 15,7 9,2 8 4 W 1021,6 35 -
20.04.2019 10:00:00 13,2 8,8 8 4 W 1022,5 - -
20.04.2019 09:00:00 10,0 7,9 5 3 WSW 1023,5 - -
20.04.2019 08:00:00 7,6 6,8 5 3 W 1023,6 30 -
20.04.2019 07:00:00 7,3 6,4 0 0 N 1023,2 - -
20.04.2019 06:00:00 8,4 7,3 4 2 W 1023,6 - -
20.04.2019 05:00:00 8,9 7,7 2 1 SSW 1024,0 - -
20.04.2019 04:00:00 9,4 8,5 0 0 N 1024,4 - -
20.04.2019 03:00:00 9,9 8,8 4 2 W 1024,1 - -
20.04.2019 02:00:00 9,8 8,7 4 2 N 1024,1 - -
20.04.2019 01:00:00 10,9 9,5 4 2 WSW 1023,9 - -
20.04.2019 00:00:00 11,7 10,1 5 3 ESE 1023,9 - -
19.04.2019 23:00:00 12,7 10,7 0 0 N 1023,3 25 -
19.04.2019 22:00:00 13,7 10,7 0 0 N 1022,7 - -
19.04.2019 21:00:00 15,6 10,6 4 2 SE 1021,6 - -
19.04.2019 20:00:00 17,4 11,0 5 3 E 1020,6 30 -
19.04.2019 19:00:00 18,3 9,6 13 7 E 1020,0 - -
19.04.2019 18:00:00 18,8 9,1 21 11 E 1019,5 - -
19.04.2019 17:00:00 19,0 9,5 24 13 ENE 1019,5 30 -
19.04.2019 16:00:00 18,3 9,4 24 13 E 1019,6 - -
19.04.2019 15:00:00 17,8 10,4 18 10 E 1019,7 - -
19.04.2019 14:00:00 16,8 10,1 11 6 ENE 1019,7 25 -

tt = temperature
td = dewpoint
ff = wind speed
dd = wind direction
ppp = reduced air pressure
vv = visibility
rr = precipitation

Next stations